GW2490 Weather Reports


Display with metric or nautical units.
time (UTC)temp
F
wind
direction
speed
MPH
gust
MPH
rain 1hr
in
rain 24hr
in
rain mn
in
humidity
%
barometer
mb
20260505011420 0 0.0 0.0 0.00 0.00 0.00
20260505010957 74 141 3.0 5.0 0.00 0.00 0.00 47 1009.4
20260505010457 74 125 3.0 4.0 0.00 0.00 0.00 47 1009.4
20260505010417 0 0.0 0.0 0.00 0.00 0.00
20260505005957 74 145 3.0 4.0 0.00 0.00 0.00 48 1009.5
20260505005918 0 0.0 0.0 0.00 0.00 0.00
20260505005458 74 127 3.0 4.0 0.00 0.00 0.00 47 1009.5
20260505005417 0 0.0 0.0 0.00 0.00 0.00
20260505004957 73 145 3.0 6.0 0.00 0.00 0.00 48 1009.5
20260505004457 74 117 4.0 6.0 0.00 0.00 0.00 47 1009.5
20260505004418 0 0.0 0.0 0.00 0.00 0.00
20260505003957 73 148 4.0 5.0 0.00 0.00 0.00 48 1009.5
20260505003917 0 0.0 0.0 0.00 0.00 0.00
20260505003457 74 120 4.0 7.0 0.00 0.00 0.00 46 1009.5
20260505003418 0 0.0 0.0 0.00 0.00 0.00
20260505002957 74 132 3.0 4.0 0.00 0.00 0.00 47 1009.5
20260505002917 0 0.0 0.0 0.00 0.00 0.00
20260505002458 74 135 3.0 4.0 0.00 0.00 0.00 49 1009.5
20260505001957 74 165 4.0 6.0 0.00 0.00 0.00 50 1009.7
20260505001457 74 158 3.0 5.0 0.00 0.00 0.00 50 1009.7
20260505001418 0 0.0 0.0 0.00 0.00 0.00
20260505000957 73 126 3.0 5.0 0.00 0.00 0.00 51 1009.7
20260505000918 0 0.0 0.0 0.00 0.00 0.00
20260505000457 73 172 4.0 6.0 0.00 0.00 0.00 51 1009.8
20260505000417 0 0.0 0.0 0.00 0.00 0.00
20260504235957 74 123 3.0 4.0 0.00 0.00 0.00 51 1009.9
20260504235916 0 0.0 0.0 0.00 0.00 0.00
20260504235458 73 143 3.0 4.0 0.00 0.00 0.00 51 1009.9
20260504235417 0 0.0 0.0 0.00 0.00 0.00
20260504234957 73 184 4.0 6.0 0.00 0.00 0.00 51 1009.9
20260504234457 73 155 5.0 7.0 0.00 0.00 0.00 51 1009.9
20260504233957 73 166 4.0 6.0 0.00 0.00 0.00 51 1009.9
20260504233917 0 0.0 0.0 0.00 0.00 0.00
20260504233457 73 185 4.0 6.0 0.00 0.00 0.00 51 1009.8
20260504233417 0 0.0 0.0 0.00 0.00 0.00
20260504232957 74 177 3.0 5.0 0.00 0.00 0.00 50 1009.9
20260504232917 0 0.0 0.0 0.00 0.00 0.00
20260504232457 73 171 4.0 6.0 0.00 0.00 0.00 51 1009.9
20260504232418 0 0.0 0.0 0.00 0.00 0.00
20260504231957 73 193 5.0 8.0 0.00 0.00 0.00 51 1009.9
20260504231917 0 0.0 0.0 0.00 0.00 0.00
20260504231457 74 189 4.0 7.0 0.00 0.00 0.00 51 1010.0
20260504231417 0 0.0 0.0 0.00 0.00 0.00
20260504230957 74 177 5.0 6.0 0.00 0.00 0.00 51 1010.0
20260504230913 0 0.0 0.0 0.00 0.00 0.00
20260504230457 74 182 3.0 6.0 0.00 0.00 0.00 51 1010.0
20260504230413 0 0.0 0.0 0.00 0.00 0.00
20260504225957 74 180 4.0 5.0 0.00 0.00 0.00 52 1010.1
20260504225914 0 0.0 0.0 0.00 0.00 0.00
20260504225458 75 150 4.0 5.0 0.00 0.00 0.00 52 1010.1
20260504224957 75 165 3.0 4.0 0.00 0.00 0.00 50 1010.2
20260504224914 0 0.0 0.0 0.00 0.00 0.00
20260504224457 74 191 3.0 5.0 0.00 0.00 0.00 52 1010.2
20260504223958 74 142 2.0 3.0 0.00 0.00 0.00 52 1010.3
20260504223915 0 0.0 0.0 0.00 0.00 0.00
20260504223457 74 187 4.0 7.0 0.00 0.00 0.00 52 1010.3
20260504223415 0 0.0 0.0 0.00 0.00 0.00
20260504222957 74 143 3.0 6.0 0.00 0.00 0.00 52 1010.3
20260504222914 0 0.0 0.0 0.00 0.00 0.00
20260504222457 75 200 3.0 5.0 0.00 0.00 0.00 51 1010.3
20260504222415 0 0.0 0.0 0.00 0.00 0.00
20260504221958 75 205 2.0 4.0 0.00 0.00 0.00 52 1010.3
20260504221913 0 0.0 0.0 0.00 0.00 0.00
20260504221457 75 199 3.0 5.0 0.00 0.00 0.00 52 1010.3
20260504221411 0 0.0 0.0 0.00 0.00 0.00
20260504220958 75 162 3.0 5.0 0.00 0.00 0.00 52 1010.4
20260504220912 0 0.0 0.0 0.00 0.00 0.00
20260504220504 75 178 3.0 5.0 0.00 0.00 0.00 52 1010.4
20260504220409 0 0.0 0.0 0.00 0.00 0.00
20260504215957 75 151 5.0 7.0 0.00 0.00 0.00 52 1010.4
20260504215908 0 0.0 0.0 0.00 0.00 0.00
20260504215457 75 164 3.0 5.0 0.00 0.00 0.00 52 1010.5
20260504215409 0 0.0 0.0 0.00 0.00 0.00
20260504214957 75 242 4.0 7.0 0.00 0.00 0.00 52 1010.5
20260504214914 0 0.0 0.0 0.00 0.00 0.00
20260504214457 75 218 4.0 8.0 0.00 0.00 0.00 52 1010.5
20260504213958 75 168 3.0 4.0 0.00 0.00 0.00 53 1010.5
20260504213458 74 209 3.0 6.0 0.00 0.00 0.00 53 1010.5
20260504213413 0 0.0 0.0 0.00 0.00 0.00
20260504213004 75 262 4.0 6.0 0.00 0.00 0.00 52 1010.6
20260504212909 0 0.0 0.0 0.00 0.00 0.00
20260504212457 75 220 3.0 4.0 0.00 0.00 0.00 53 1010.6
20260504212408 0 0.0 0.0 0.00 0.00 0.00
20260504211957 75 264 4.0 6.0 0.00 0.00 0.00 53 1010.6
20260504211457 75 234 4.0 6.0 0.00 0.00 0.00 52 1010.6
20260504211406 0 0.0 0.0 0.00 0.00 0.00
20260504210957 74 213 4.0 8.0 0.00 0.00 0.00 53 1010.7
20260504210907 0 0.0 0.0 0.00 0.00 0.00
20260504210458 74 256 3.0 7.0 0.00 0.00 0.00 52 1010.7
20260504210404 0 0.0 0.0 0.00 0.00 0.00
20260504210000 74 247 4.0 6.0 0.00 0.00 0.00 53 1010.7
20260504205903 0 0.0 0.0 0.00 0.00 0.00
20260504205457 73 213 3.0 6.0 0.00 0.00 0.00 54 1010.6
20260504205404 0 0.0 0.0 0.00 0.00 0.00
20260504204958 74 244 2.0 7.0 0.00 0.00 0.00 53 1010.6
20260504204903 0 0.0 0.0 0.00 0.00 0.00
20260504204458 74 225 5.0 7.0 0.00 0.00 0.00 53 1010.7
20260504204401 0 0.0 0.0 0.00 0.00 0.00
20260504203957 74 248 3.0 6.0 0.00 0.00 0.00 53 1010.8
20260504203901 0 0.0 0.0 0.00 0.00 0.00
20260504203459 74 236 4.0 6.0 0.00 0.00 0.00 53 1010.9
20260504203401 0 0.0 0.0 0.00 0.00 0.00
20260504202957 73 220 4.0 6.0 0.00 0.00 0.00 54 1010.8
20260504202901 0 0.0 0.0 0.00 0.00 0.00
20260504202401 0 0.0 0.0 0.00 0.00 0.00
20260504202008 74 254 4.0 7.0 0.00 0.00 0.00 50 1010.8
20260504201901 0 0.0 0.0 0.00 0.00 0.00
20260504201458 74 231 2.0 3.0 0.00 0.00 0.00 50 1010.9
20260504201359 0 0.0 0.0 0.00 0.00 0.00
20260504201000 74 276 4.0 6.0 0.00 0.00 0.00 50 1010.9
20260504200858 0 0.0 0.0 0.00 0.00 0.00
20260504200459 73 256 2.0 3.0 0.00 0.00 0.00 52 1011.0
20260504200358 0 0.0 0.0 0.00 0.00 0.00
20260504195957 73 292 4.0 6.0 0.00 0.00 0.00 53 1011.0
20260504195855 0 0.0 0.0 0.00 0.00 0.00
20260504195458 73 257 5.0 7.0 0.00 0.00 0.00 54 1010.9
20260504195356 0 0.0 0.0 0.00 0.00 0.00
20260504194957 72 264 4.0 7.0 0.00 0.00 0.00 55 1010.9
20260504194855 0 0.0 0.0 0.00 0.00 0.00
20260504194457 72 225 6.0 8.0 0.00 0.00 0.00 54 1010.9
20260504194356 0 0.0 0.0 0.00 0.00 0.00
20260504193957 71 250 3.0 5.0 0.00 0.00 0.00 55 1010.9
20260504193855 0 0.0 0.0 0.00 0.00 0.00
20260504193457 71 265 3.0 5.0 0.00 0.00 0.00 54 1010.8
20260504193356 0 0.0 0.0 0.00 0.00 0.00
20260504192957 71 201 3.0 5.0 0.00 0.00 0.00 56 1010.8
20260504192855 0 0.0 0.0 0.00 0.00 0.00
20260504192458 71 212 3.0 7.0 0.00 0.00 0.00 55 1010.8
20260504192356 0 0.0 0.0 0.00 0.00 0.00
20260504191957 71 273 4.0 5.0 0.00 0.00 0.00 55 1010.9
20260504191457 71 199 3.0 6.0 0.00 0.00 0.00 55 1010.8
20260504191354 0 0.0 0.0 0.00 0.00 0.00
20260504190957 71 221 4.0 5.0 0.00 0.00 0.00 55 1010.9
20260504190854 0 0.0 0.0 0.00 0.00 0.00
20260504190458 72 247 4.0 8.0 0.00 0.00 0.00 54 1010.9
20260504190351 0 0.0 0.0 0.00 0.00 0.00
20260504185958 71 236 2.0 5.0 0.00 0.00 0.00 54 1010.9
20260504185850 0 0.0 0.0 0.00 0.00 0.00
20260504185457 71 266 3.0 6.0 0.00 0.00 0.00 52 1010.9
20260504185351 0 0.0 0.0 0.00 0.00 0.00
20260504184957 71 235 4.0 6.0 0.00 0.00 0.00 53 1011.0
20260504184457 71 215 2.0 4.0 0.00 0.00 0.00 54 1011.0
20260504184350 0 0.0 0.0 0.00 0.00 0.00
20260504184000 71 241 3.0 6.0 0.00 0.00 0.00 53 1011.0
20260504183851 0 0.0 0.0 0.00 0.00 0.00
20260504183459 71 206 3.0 4.0 0.00 0.00 0.00 53 1010.9
20260504183351 0 0.0 0.0 0.00 0.00 0.00
20260504182957 71 258 3.0 6.0 0.00 0.00 0.00 53 1010.9
20260504182851 0 0.0 0.0 0.00 0.00 0.00
20260504182457 71 268 2.0 4.0 0.00 0.00 0.00 54 1011.0
20260504181957 71 243 3.0 5.0 0.00 0.00 0.00 54 1010.9
20260504181851 0 0.0 0.0 0.00 0.00 0.00
20260504181458 71 216 4.0 6.0 0.00 0.00 0.00 55 1010.9
20260504181351 0 0.0 0.0 0.00 0.00 0.00
20260504180957 71 175 3.0 5.0 0.00 0.00 0.00 55 1010.9
20260504180848 0 0.0 0.0 0.00 0.00 0.00
20260504180458 70 221 2.0 4.0 0.00 0.00 0.00 54 1010.9
20260504180349 0 0.0 0.0 0.00 0.00 0.00
20260504175958 70 170 2.0 3.0 0.00 0.00 0.00 54 1011.0
20260504175848 0 0.0 0.0 0.00 0.00 0.00
20260504175459 70 262 3.0 4.0 0.00 0.00 0.00 55 1010.9
20260504175349 0 0.0 0.0 0.00 0.00 0.00
20260504175005 70 195 1.0 3.0 0.00 0.00 0.00 58 1011.0
20260504174848 0 0.0 0.0 0.00 0.00 0.00
20260504174457 69 206 2.0 3.0 0.00 0.00 0.00 60 1010.9
20260504174349 0 0.0 0.0 0.00 0.00 0.00
20260504173957 69 194 2.0 4.0 0.00 0.00 0.00 59 1011.0
20260504173849 0 0.0 0.0 0.00 0.00 0.00
20260504173457 69 187 2.0 3.0 0.00 0.00 0.00 59 1010.9
20260504173348 0 0.0 0.0 0.00 0.00 0.00
20260504172957 69 284 1.0 2.0 0.00 0.00 0.00 57 1011.0
20260504172457 69 234 3.0 4.0 0.00 0.00 0.00 57 1011.0
20260504171957 68 238 2.0 2.0 0.00 0.00 0.00 58 1010.9
20260504171849 0 0.0 0.0 0.00 0.00 0.00
20260504171458 68 199 2.0 4.0 0.00 0.00 0.00 60 1011.0
20260504171349 0 0.0 0.0 0.00 0.00 0.00
20260504170957 68 251 2.0 5.0 0.00 0.00 0.00 61 1010.9
20260504170850 0 0.0 0.0 0.00 0.00 0.00
20260504170457 69 162 2.0 3.0 0.00 0.00 0.00 57 1010.9
20260504160341 0 0.0 0.0 0.00 0.00 0.00
20260504151009 65 18 1.0 2.0 0.00 0.00 0.00 56 1010.8
20260504150457 65 359 1.0 2.0 0.00 0.00 0.00 56 1010.8
20260504150341 0 0.0 0.0 0.00 0.00 0.00
20260504141310 0 0.0 0.0 0.00 0.00 0.00
20260504140958 61 31 2.0 3.0 0.00 0.00 0.00 60 1010.2
20260504140810 0 0.0 0.0 0.00 0.00 0.00
20260504140458 61 33 2.0 2.0 0.00 0.00 0.00 60 1010.2
20260504140310 0 0.0 0.0 0.00 0.00 0.00
20260504130803 0 0.0 0.0 0.00 0.00 0.00
20260504130457 61 9 1.0 2.0 0.00 0.00 0.00 58 1009.7
20260504130303 0 0.0 0.0 0.00 0.00 0.00
20260504110457 62 0 2.0 3.0 0.00 0.00 0.00 61 1009.9
20260504100457 64 315 2.0 4.0 0.00 0.00 0.00 53 1009.8
20260504100246 0 0.0 0.0 0.00 0.00 0.00
20260504081957 70 309 5.0 7.0 0.00 0.00 0.00 44 1009.9
20260504081744 0 0.0 0.0 0.00 0.00 0.00
20260504081458 70 323 3.0 6.0 0.00 0.00 0.00 44 1009.8
20260504081244 0 0.0 0.0 0.00 0.00 0.00
20260504080958 70 324 4.0 7.0 0.00 0.00 0.00 44 1009.9
20260504080744 0 0.0 0.0 0.00 0.00 0.00
20260504080457 70 312 4.0 8.0 0.00 0.00 0.00 43 1009.9
20260504080244 0 0.0 0.0 0.00 0.00 0.00
20260504070242 0 0.0 0.0 0.00 0.00 0.00
20260504060237 0 0.0 0.0 0.00 0.00 0.00
20260504050732 0 0.0 0.0 0.00 0.00 0.00
20260504050457 71 319 3.0 4.0 0.00 0.00 0.00 40 1010.2
20260504050232 0 0.0 0.0 0.00 0.00 0.00
20260504045732 0 0.0 0.0 0.00 0.00 0.00
20260504045507 71 352 4.0 7.0 0.00 0.00 0.00 40 1010.3
20260504044957 71 356 2.0 5.0 0.00 0.00 0.00 41 1010.3
20260504044729 0 0.0 0.0 0.00 0.00 0.00
20260504044457 71 333 4.0 6.0 0.00 0.00 0.00 40 1010.3
20260504043957 71 319 3.0 7.0 0.00 0.00 0.00 40 1010.2
20260504043729 0 0.0 0.0 0.00 0.00 0.00
20260504043457 71 332 4.0 5.0 0.00 0.00 0.00 40 1010.2
20260504043229 0 0.0 0.0 0.00 0.00 0.00
20260504042957 71 348 5.0 8.0 0.00 0.00 0.00 40 1010.2
20260504042730 0 0.0 0.0 0.00 0.00 0.00
20260504042457 71 338 5.0 10.0 0.00 0.00 0.00 40 1010.2
20260504041957 71 326 4.0 7.0 0.00 0.00 0.00 40 1010.2
20260504041729 0 0.0 0.0 0.00 0.00 0.00
20260504041457 71 349 5.0 11.0 0.00 0.00 0.00 40 1010.2
20260504041230 0 0.0 0.0 0.00 0.00 0.00
20260504040957 71 336 5.0 8.0 0.00 0.00 0.00 40 1010.2
20260504040730 0 0.0 0.0 0.00 0.00 0.00
20260504040457 71 336 3.0 6.0 0.00 0.00 0.00 40 1010.2
20260504040231 0 0.0 0.0 0.00 0.00 0.00
20260504035957 71 338 4.0 7.0 0.00 0.00 0.00 40 1010.2
20260504035727 0 0.0 0.0 0.00 0.00 0.00
20260504035457 71 348 5.0 8.0 0.00 0.00 0.00 41 1010.2
20260504035227 0 0.0 0.0 0.00 0.00 0.00
20260504034957 71 327 4.0 8.0 0.00 0.00 0.00 41 1010.3
20260504034728 0 0.0 0.0 0.00 0.00 0.00
20260504034458 71 336 6.0 9.0 0.00 0.00 0.00 40 1010.3
20260504034227 0 0.0 0.0 0.00 0.00 0.00
20260504033957 71 351 4.0 7.0 0.00 0.00 0.00 40 1010.2
20260504033728 0 0.0 0.0 0.00 0.00 0.00
20260504033457 71 330 4.0 7.0 0.00 0.00 0.00 40 1010.3
20260504033227 0 0.0 0.0 0.00 0.00 0.00
20260504032957 72 1 5.0 8.0 0.00 0.00 0.00 40 1010.2
20260504032727 0 0.0 0.0 0.00 0.00 0.00
20260504032457 72 0 4.0 9.0 0.00 0.00 0.00 40 1010.1
20260504031958 72 341 4.0 8.0 0.00 0.00 0.00 40 1010.2
20260504031457 73 338 4.0 7.0 0.00 0.00 0.00 39 1010.2
20260504031228 0 0.0 0.0 0.00 0.00 0.00
20260504031000 73 334 4.0 7.0 0.00 0.00 0.00 39 1010.3
20260504030728 0 0.0 0.0 0.00 0.00 0.00
20260504030457 73 356 4.0 8.0 0.00 0.00 0.00 39 1010.3
20260504030228 0 0.0 0.0 0.00 0.00 0.00
20260504025958 74 329 3.0 6.0 0.00 0.00 0.00 39 1010.2
20260504025728 0 0.0 0.0 0.00 0.00 0.00
20260504025457 74 330 6.0 9.0 0.00 0.00 0.00 39 1010.3
20260504025227 0 0.0 0.0 0.00 0.00 0.00
20260504025007 74 337 5.0 8.0 0.00 0.00 0.00 39 1010.3
20260504024725 0 0.0 0.0 0.00 0.00 0.00
20260504024457 75 347 5.0 9.0 0.00 0.00 0.00 38 1010.3
20260504024226 0 0.0 0.0 0.00 0.00 0.00
20260504023957 75 311 2.0 4.0 0.00 0.00 0.00 40 1010.3
20260504023726 0 0.0 0.0 0.00 0.00 0.00
20260504023457 75 317 3.0 6.0 0.00 0.00 0.00 39 1010.3
20260504023226 0 0.0 0.0 0.00 0.00 0.00
20260504022957 75 325 4.0 6.0 0.00 0.00 0.00 39 1010.4
20260504022457 75 312 4.0 8.0 0.00 0.00 0.00 39 1010.4
20260504022226 0 0.0 0.0 0.00 0.00 0.00
20260504021958 75 314 3.0 6.0 0.00 0.00 0.00 39 1010.5
20260504021726 0 0.0 0.0 0.00 0.00 0.00
20260504021457 75 326 4.0 8.0 0.00 0.00 0.00 39 1010.6
20260504021226 0 0.0 0.0 0.00 0.00 0.00
20260504020957 75 320 4.0 7.0 0.00 0.00 0.00 40 1010.6
20260504020727 0 0.0 0.0 0.00 0.00 0.00
20260504020457 74 337 6.0 10.0 0.00 0.00 0.00 39 1010.6
20260504020226 0 0.0 0.0 0.00 0.00 0.00
20260504020002 74 313 6.0 8.0 0.00 0.00 0.00 41 1010.7
20260504015727 0 0.0 0.0 0.00 0.00 0.00
20260504015458 74 320 6.0 7.0 0.00 0.00 0.00 41 1010.7
20260504015224 0 0.0 0.0 0.00 0.00 0.00
20260504014957 74 300 6.0 9.0 0.00 0.00 0.00 43 1010.7
20260504014724 0 0.0 0.0 0.00 0.00 0.00
20260504014457 74 311 6.0 9.0 0.00 0.00 0.00 42 1010.7
20260504014223 0 0.0 0.0 0.00 0.00 0.00
20260504013958 74 309 7.0 11.0 0.00 0.00 0.00 43 1010.7
20260504013724 0 0.0 0.0 0.00 0.00 0.00
20260504013458 74 306 4.0 8.0 0.00 0.00 0.00 43 1010.7
20260504013224 0 0.0 0.0 0.00 0.00 0.00
20260504012957 73 308 6.0 8.0 0.00 0.00 0.00 44 1010.7
20260504012724 0 0.0 0.0 0.00 0.00 0.00
20260504012457 73 301 7.0 11.0 0.00 0.00 0.00 46 1010.8
20260504012224 0 0.0 0.0 0.00 0.00 0.00
20260504011957 74 308 6.0 9.0 0.00 0.00 0.00 45 1010.9
20260504011457 74 305 5.0 9.0 0.00 0.00 0.00 45 1010.9